Weather in Kukoboy

Russia / Yaroslavl Oblast     58°41′53″N   39°54′27″E
temp.,
°C
wind,
m/s
gust,
m/s
humid.,
%
clouds,
%
prec.,
mm/h
press.,
hPa
HPBL,
m
10 may, mon
mon1000:00+2nw29794 0.0 1020224
03:000nnw28840 0.0 1023160
06:00+3nnw39740 0.0 1024247
09:00+9n36490 0.0 10261086
12:00+11n33384 0.0 10271435
15:00+13n22360 0.0 10271450
18:00+12n11457 0.0 1028940
21:00+6e006253 0.0 102910
11 may, tue
tue1100:00+5sse116822 0.0 103010
03:00+4sse117070 0.0 103110
06:00+7sse116524 0.0 103150
09:00+13se124555 0.0 1031510
12:00+17ese223911 0.0 1030962
15:00+19e224176 0.0 10291129
18:00+17ese24555 0.0 1029356
21:00+11se22755 0.0 102924
12 may, wed
wed1200:00+9ese22775 0.0 103011
03:00+8se11755 0.0 103011
06:00+11ese12710 0.0 103078
09:00+17ese23580 0.0 1029486
12:00+21ese34520 0.0 10281100
15:00+23ese35474 0.0 10261616
18:00+21e365810 0.0 1025639
21:00+17ese41076100 0.2 1025249
13 may, thu
thu1300:00+13ese259142 0.3 102589
03:00+13ese2390100 0.3 102558
06:00+15e2884100 0.0 1024209
09:00+18se4106333 0.0 1023625
12:00+23se69435 0.0 10221707
15:00+23se584322 0.0 10202130
18:00+17sw367496 0.0 1020434
21:00+14se1193100 0.6 102048
14 may, fri
fri1400:00+13e119776 0.1 102026
03:00+13se1396100 0.1 1020124
06:00+14sse1294100 0.0 1020248
09:00+16sse2384100 0.0 1020525
12:00+19s2367100 0.1 10191112
15:00+21se235526 0.1 10181452
18:00+20ese2460100 0.0 1016920
21:00+15e2286100 0.0 101525